Weather reports worldwide

Advertisment
Trawscoed, United Kingdom (3503): temperature & dewpoint: 12.10.2018 18:00:00 - 18.10.2018 18:00:00 (BST)Trawscoed, United Kingdom (3503): temperature -20cm & temperature -100cm: 12.10.2018 18:00:00 - 18.10.2018 18:00:00 (BST)Trawscoed, United Kingdom (3503): wind speed & gusts: 12.10.2018 18:00:00 - 18.10.2018 18:00:00 (BST)Trawscoed, United Kingdom (3503): wind direction: 12.10.2018 18:00:00 - 18.10.2018 18:00:00 (BST)Trawscoed, United Kingdom (3503): reduced air pressure: 12.10.2018 18:00:00 - 18.10.2018 18:00:00 (BST)Trawscoed, United Kingdom (3503): visibility: 12.10.2018 18:00:00 - 18.10.2018 18:00:00 (BST)Trawscoed, United Kingdom (3503): precipitation: 12.10.2018 18:00:00 - 18.10.2018 18:00:00 (BST)
Date & Time tt [°C] td [°C] tt -20cm [°C] tt -100cm [°C] ff [km/h] ff [kn] fx [km/h] fx [kn] dd ppp [hPa] vv [km] rr [mm]
18.10.2018 18:00:00 - - - - - - - - - - - -
18.10.2018 17:00:00 13,9 7,3 - - 13 7 - - E 1026,4 35 0,0
18.10.2018 16:00:00 14,5 6,2 - - 9 5 - - SE 1026,7 35 0,0
18.10.2018 15:00:00 14,4 6,1 - - 11 6 - - E 1027,1 29 0,0
18.10.2018 14:00:00 13,6 5,6 - - 11 6 - - E 1027,6 3,1 0,0
18.10.2018 13:00:00 13,4 4,1 - - 9 5 - - E 1028,2 35 0,0
18.10.2018 12:00:00 12,6 5,0 - - 11 6 - - E 1028,9 6 0,0
18.10.2018 11:00:00 11,0 7,3 - - 4 2 - - W 1029,3 35 0,0
18.10.2018 10:00:00 8,0 7,8 13,7 14,2 2 1 - - NNW 1029,3 26 0,0
18.10.2018 09:00:00 4,5 4,4 - - 2 1 - - NNE 1028,9 23 0,0
18.10.2018 08:00:00 3,0 2,8 - - 2 1 - - NNW 1028,9 13 0,0
18.10.2018 07:00:00 3,9 3,7 - - 4 2 - - NNW 1028,5 14 0,0
18.10.2018 06:00:00 4,2 3,8 - - 4 2 - - WSW 1028,0 10 0,0
18.10.2018 05:00:00 5,1 4,5 - - 2 1 - - WNW 1027,8 13 0,0
18.10.2018 04:00:00 6,6 6,1 - - 2 1 - - W 1027,4 18 0,0
18.10.2018 03:00:00 8,5 8,3 - - 4 2 - - S 1027,5 14 0,0
18.10.2018 02:00:00 8,5 8,4 - - 2 1 - - SE 1027,7 17 0,0
18.10.2018 01:00:00 8,2 8,0 - - 2 1 - - WSW 1027,2 13 0,0
18.10.2018 00:00:00 7,5 7,2 - - 2 1 - - SSE 1026,8 10 0,0
17.10.2018 23:00:00 8,1 7,9 - - 0 0 - - N 1026,3 11 0,0
17.10.2018 22:00:00 7,8 7,6 - - 2 1 - - ESE 1025,9 13 0,0
17.10.2018 21:00:00 7,4 7,0 - - 4 2 - - NNW 1025,5 13 0,0
17.10.2018 20:00:00 7,8 7,0 - - 0 0 - - N 1024,8 14 0,0
17.10.2018 19:00:00 9,4 7,8 - - 0 0 - - N 1023,8 9 0,0
17.10.2018 18:00:00 11,5 9,6 - - 4 2 - - W 1022,9 27 0,0
17.10.2018 17:00:00 13,2 10,3 - - 13 7 - - WNW 1021,9 19 0,0
17.10.2018 16:00:00 13,8 10,4 - - 11 6 - - NNW 1021,4 14 0,2
17.10.2018 15:00:00 13,7 10,4 - - 9 5 - - NW 1021,0 13 0,0
17.10.2018 14:00:00 14,0 11,1 - - 11 6 - - NW 1020,4 12 0,0
17.10.2018 13:00:00 14,0 10,6 - - 9 5 - - NW 1020,2 13 0,0
17.10.2018 12:00:00 13,8 11,0 - - 4 2 - - NW 1020,0 12 0,0
17.10.2018 11:00:00 13,5 11,7 - - 0 0 - - N 1019,4 13 0,0
17.10.2018 10:00:00 12,3 11,8 14,0 14,2 0 0 - - N 1018,9 10 0,0
17.10.2018 09:00:00 11,0 10,6 - - 0 0 - - N 1018,2 9 0,0
17.10.2018 08:00:00 10,9 10,7 - - 2 1 - - NNE 1017,6 8 0,0
17.10.2018 07:00:00 10,1 9,5 - - 2 1 - - ESE 1016,7 8 0,0
17.10.2018 06:00:00 11,0 10,6 - - 8 4 - - SE 1016,4 9 0,0
17.10.2018 05:00:00 10,9 10,4 - - 5 3 - - E 1015,8 8 0,0
17.10.2018 04:00:00 10,6 10,0 - - 5 3 - - SSE 1015,5 8 0,0
17.10.2018 03:00:00 12,1 11,4 - - 11 6 - - SW 1015,5 9 0,0
17.10.2018 02:00:00 10,7 10,2 - - 5 3 - - SSE 1015,6 15 0,0
17.10.2018 01:00:00 12,1 11,5 - - 5 3 - - S 1015,2 50 0,0
17.10.2018 00:00:00 12,5 11,7 - - 9 5 - - S 1014,9 3,0 0,2
16.10.2018 23:00:00 12,3 11,4 - - 9 5 - - S 1014,6 4,4 0,0
16.10.2018 22:00:00 12,3 10,9 - - 15 8 - - SSE 1014,7 23 0,0
16.10.2018 21:00:00 12,6 10,5 - - 15 8 - - S 1014,4 12 0,0
16.10.2018 20:00:00 12,8 10,1 - - 13 7 - - S 1014,4 30 0,0
16.10.2018 19:00:00 13,1 9,7 - - 16 9 - - SSE 1014,2 45 0,0
16.10.2018 18:00:00 13,2 9,1 - - 13 7 - - S 1014,1 50 0,0
16.10.2018 17:00:00 14,3 9,4 - - 13 7 - - S 1013,9 45 0,0
16.10.2018 16:00:00 15,5 10,5 - - 13 7 - - S 1013,9 50 0,0
16.10.2018 15:00:00 15,7 11,8 - - 13 7 - - S 1014,0 30 0,0
16.10.2018 14:00:00 14,0 11,6 - - 8 4 - - SSW 1014,3 11 0,0
16.10.2018 13:00:00 14,5 11,9 - - 13 7 - - SW 1014,2 28 0,0
16.10.2018 12:00:00 14,8 12,8 - - 11 6 - - SSW 1013,9 23 0,0
16.10.2018 11:00:00 14,7 13,1 - - 8 4 - - S 1013,7 24 0,0
16.10.2018 10:00:00 14,2 12,6 14,0 14,4 5 3 - - SW 1013,8 10 0,0
16.10.2018 09:00:00 13,5 12,3 - - 2 1 - - E 1013,5 11 0,0
16.10.2018 08:00:00 13,0 11,3 - - 2 1 - - WSW 1013,4 22 0,0
16.10.2018 07:00:00 13,2 11,2 - - 2 1 - - SE 1012,9 25 0,0
16.10.2018 06:00:00 13,3 11,1 - - 15 8 - - SSE 1012,7 35 0,0
16.10.2018 05:00:00 12,8 10,8 - - 4 2 - - ESE 1013,1 50 0,0
16.10.2018 04:00:00 12,7 10,6 - - 13 7 - - SE 1013,2 45 0,0
16.10.2018 03:00:00 11,6 10,6 - - 2 1 - - NNW 1013,2 30 0,0
16.10.2018 02:00:00 11,7 10,2 - - 2 1 - - W 1013,5 27 0,0
16.10.2018 01:00:00 11,7 9,9 - - 2 1 - - ENE 1013,8 50 0,0
16.10.2018 00:00:00 12,0 9,4 - - 4 2 - - E 1014,2 50 0,0
15.10.2018 23:00:00 12,0 9,2 - - 4 2 - - S 1014,3 50 0,0
15.10.2018 22:00:00 11,9 9,1 - - 13 7 - - ESE 1014,1 50 0,0
15.10.2018 21:00:00 11,6 8,9 - - 9 5 - - SE 1014,0 50 0,0
15.10.2018 20:00:00 11,5 8,7 - - 8 4 - - ENE 1014,1 50 0,0
15.10.2018 19:00:00 11,2 8,7 - - 8 4 - - SE 1014,0 50 0,0
15.10.2018 18:00:00 11,5 8,6 - - 9 5 - - E 1014,0 50 0,0
15.10.2018 17:00:00 12,2 8,3 - - 5 3 - - SSE 1013,5 45 0,0
15.10.2018 16:00:00 12,6 8,6 - - 8 4 - - ENE 1013,3 40 0,0
15.10.2018 15:00:00 12,6 8,2 - - 9 5 - - ENE 1013,6 35 0,0
15.10.2018 14:00:00 12,7 8,1 - - 11 6 - - NE 1013,5 45 0,0
15.10.2018 13:00:00 12,9 8,1 - - 8 4 - - NE 1013,4 45 0,0
15.10.2018 12:00:00 11,9 7,6 - - 11 6 - - NNE 1013,3 45 0,0
15.10.2018 11:00:00 11,2 7,5 - - 5 3 - - N 1013,1 50 0,0
15.10.2018 10:00:00 9,0 8,1 14,0 14,4 4 2 - - NW 1012,9 50 0,0
15.10.2018 09:00:00 7,2 7,1 - - 4 2 - - WSW 1013,0 14 0,0
15.10.2018 08:00:00 6,0 5,9 - - 2 1 - - E 1012,7 14 0,0
15.10.2018 07:00:00 5,6 5,6 - - 2 1 - - WNW 1012,5 9 0,0
15.10.2018 06:00:00 4,7 4,6 - - 2 1 - - SSW 1011,8 8 0,0
15.10.2018 05:00:00 4,3 4,2 - - 2 1 - - NE 1011,9 6 0,0
15.10.2018 04:00:00 3,4 3,2 - - 0 0 - - N 1012,0 6 0,0
15.10.2018 03:00:00 3,3 3,1 - - 2 1 - - S 1011,9 6 0,0
15.10.2018 02:00:00 3,6 3,3 - - 4 2 - - ESE 1012,1 8 0,0
15.10.2018 01:00:00 4,4 4,2 - - 4 2 - - SSE 1012,3 19 0,0
15.10.2018 00:00:00 4,5 4,2 - - 0 0 - - N 1011,9 30 0,0
14.10.2018 23:00:00 4,7 4,1 - - 4 2 - - SE 1011,6 45 0,0
14.10.2018 22:00:00 6,0 5,5 - - 2 1 - - SSW 1011,3 50 0,2
14.10.2018 21:00:00 6,6 5,6 - - 2 1 - - NW 1011,1 50 0,0
14.10.2018 20:00:00 8,5 7,3 - - 4 2 - - WSW 1010,6 50 0,0
14.10.2018 19:00:00 9,4 7,9 - - 2 1 - - SSW 1010,5 50 0,0
14.10.2018 18:00:00 11,4 8,5 - - 4 2 - - NE 1009,7 50 0,0
14.10.2018 17:00:00 12,4 8,1 - - 5 3 - - E 1009,3 50 0,0
14.10.2018 16:00:00 15,8 7,4 - - 2 1 - - W 1008,7 50 0,0
14.10.2018 15:00:00 14,3 7,2 - - 5 3 - - E 1008,1 30 0,0
14.10.2018 14:00:00 12,9 7,8 - - 8 4 - - ENE 1008,5 40 0,0
14.10.2018 13:00:00 12,1 8,6 - - 9 5 - - N 1008,8 50 0,0
14.10.2018 12:00:00 11,0 9,9 - - 9 5 - - WNW 1008,9 45 0,0
14.10.2018 11:00:00 10,5 10,1 - - 5 3 - - W 1008,2 35 0,0
14.10.2018 10:00:00 10,0 9,8 14,7 14,2 2 1 - - NNE 1008,3 23 0,0
14.10.2018 09:00:00 9,9 9,6 - - 2 1 - - ESE 1008,0 23 0,0
14.10.2018 08:00:00 9,9 9,6 - - 0 0 - - N 1007,8 20 0,0
14.10.2018 07:00:00 10,1 9,7 - - 0 0 - - N 1007,3 21 0,0
14.10.2018 06:00:00 10,1 9,7 - - 4 2 - - SSW 1007,1 20 0,0
14.10.2018 05:00:00 10,1 9,3 - - 2 1 - - N 1007,0 19 0,0
14.10.2018 04:00:00 10,6 8,8 - - 5 3 - - NNW 1007,3 50 0,0
14.10.2018 03:00:00 10,6 9,3 - - 15 8 - - NW 1007,0 9 0,4
14.10.2018 02:00:00 11,2 10,6 - - 4 2 - - WNW 1006,0 45 0,2
14.10.2018 01:00:00 11,1 10,5 - - 9 5 - - WNW 1005,0 3,0 1,2
14.10.2018 00:00:00 14,0 11,5 - - 15 8 - - S 1003,5 7 0,0
13.10.2018 23:00:00 14,5 11,1 - - 16 9 - - S 1003,0 25 0,0
13.10.2018 22:00:00 14,9 11,9 - - 18 10 - - S 1002,9 21 0,0
13.10.2018 21:00:00 15,0 12,7 - - 18 10 - - S 1002,2 24 0,0
13.10.2018 20:00:00 15,4 13,5 - - 21 11 46 25 SSW 1001,6 19 0,8
13.10.2018 19:00:00 16,3 14,8 - - 18 10 59 32 S 1000,5 13 0,8
13.10.2018 18:00:00 17,2 15,4 - - 28 15 59 32 S 999,3 5 0,0
13.10.2018 17:00:00 18,0 15,6 - - 28 15 59 32 S 998,7 8 0,2
13.10.2018 16:00:00 18,4 16,0 - - 26 14 57 31 S 998,8 3,9 0,0
13.10.2018 15:00:00 18,4 16,4 - - 28 15 59 32 S 998,8 14 2,0
13.10.2018 14:00:00 17,5 16,3 - - 26 14 55 30 S 999,2 2,7 2,8
13.10.2018 13:00:00 17,9 16,5 - - 21 11 59 32 S 999,4 2,7 1,8
13.10.2018 12:00:00 17,9 16,7 - - 22 12 59 32 S 1000,2 6 1,8
13.10.2018 11:00:00 18,2 17,0 - - 26 14 52 28 S 1000,4 3,3 2,2
13.10.2018 10:00:00 18,3 17,2 14,4 14,2 26 14 70 38 S 1000,4 10 7,8
13.10.2018 09:00:00 18,3 16,9 - - 28 15 57 31 S 1000,3 3,5 6,0
13.10.2018 08:00:00 17,7 16,7 - - 22 12 - - S 1000,1 11 3,8
13.10.2018 07:00:00 14,9 14,5 - - 4 2 - - W 1001,3 6 2,0
13.10.2018 06:00:00 14,9 14,5 - - 4 2 - - E 1002,3 4,4 3,0
13.10.2018 05:00:00 15,1 14,6 - - 8 4 - - SSE 1002,6 13 1,0
13.10.2018 04:00:00 15,1 14,3 - - 9 5 - - SSE 1003,7 5 0,8
13.10.2018 03:00:00 14,8 14,0 - - 15 8 - - SSE 1003,6 21 2,4
13.10.2018 02:00:00 14,6 13,7 - - 8 4 - - SSW 1004,4 12 2,0
13.10.2018 01:00:00 15,3 14,2 - - 9 5 - - S 1004,4 15 4,6
13.10.2018 00:00:00 16,8 15,6 - - 15 8 - - SSW 1004,1 6 2,2
12.10.2018 23:00:00 16,9 15,9 - - 16 9 - - S 1003,5 10 2,2
12.10.2018 22:00:00 17,2 16,2 - - 15 8 48 26 S 1002,6 10 2,8
12.10.2018 21:00:00 17,8 16,5 - - 24 13 54 29 S 1002,2 5 4,0
12.10.2018 20:00:00 17,4 16,2 - - 21 11 50 27 S 1001,3 7 3,2
12.10.2018 19:00:00 17,6 16,3 - - 24 13 61 33 S 1000,4 9 1,4
12.10.2018 18:00:00 17,5 16,4 - - 24 13 57 31 S 999,8 4,0 2,6

tt = temperature
td = dewpoint
tt -20cm = temperature -20cm
tt -100cm = temperature -100cm
ff = wind speed
fx = gusts
dd = wind direction
ppp = reduced air pressure
vv = visibility
rr = precipitation

Next stations